Lid_Strength_Index
7 10 11 9 8 8 8 10 10 8 8 9 10 10 9 7 7 7 7 6 6 5 3 3 2 2 1 1 1 1 1 1 1 1 2 2 2 2 1 1 0 0 0 0
9 10 7 6 6 7 8 10 10 9 8 9 10 10 8 8 8 7 7 6 6 5 4 3 3 2 2 2 2 1 1 1 1 1 2 2 3 2 2 2 1 1 -0 -0
9 7 5 6 8 8 9 10 10 11 9 9 10 12 10 8 7 6 6 6 5 5 5 4 3 3 2 2 2 2 1 1 1 2 2 3 2 3 3 1 0 0 -0 -1
8 6 7 8 8 8 11 8 8 9 11 15 9 18 12 10 9 8 7 7 5 5 4 4 4 4 3 2 1 1 1 1 1 2 3 4 3 4 3 2 1 1 0 0
8 7 8 8 8 7 9 7 8 9 12 12 13 15 13 11 11 9 8 6 5 5 5 5 4 3 3 2 2 1 1 1 2 2 3 4 3 3 3 2 2 2 1 1
8 5 6 7 6 6 6 8 9 10 12 18 14 15 15 13 11 9 7 6 5 5 5 5 4 3 3 3 2 2 2 2 2 3 3 3 4 3 3 2 3 2 2 2
8 8 7 6 8 7 8 12 15 17 18 19 13 15 14 10 8 8 7 5 6 5 5 5 4 4 4 3 3 2 2 3 3 3 3 3 3 3 3 3 2 3 2 2
11 12 7 6 8 9 10 11 15 19 18 17 13 17 13 8 6 6 5 6 6 6 5 5 4 4 3 3 3 2 3 3 3 3 3 3 3 2 2 2 2 2 2 2
12 11 6 6 7 7 9 12 10 12 13 16 16 13 9 8 7 6 6 6 6 6 5 5 4 3 3 3 3 2 3 3 3 3 3 3 3 2 2 2 2 2 2 0
9 12 7 7 7 7 9 7 13 12 17 19 17 15 16 11 9 7 7 6 6 6 6 4 3 4 4 3 3 3 3 4 4 3 3 3 3 2 2 2 2 2 1 1
7 10 10 8 10 10 10 10 10 11 13 17 20 17 10 10 9 8 7 6 7 7 6 5 4 4 4 3 3 3 4 4 4 3 3 3 3 2 2 2 2 1 1 2
7 10 13 11 7 7 9 10 10 14 14 14 15 16 8 8 7 7 6 6 6 6 6 5 4 4 3 3 3 4 4 4 3 3 3 4 3 2 2 2 2 1 2 1
8 11 14 13 10 8 10 9 9 10 12 14 16 15 7 7 8 7 6 5 6 6 6 6 5 4 3 3 3 4 3 4 4 4 4 4 3 3 3 2 1 1 2 2
7 10 12 14 12 9 11 8 8 10 14 13 13 13 10 9 9 7 6 5 6 6 6 5 6 5 4 3 3 3 3 3 3 4 4 4 4 3 3 2 2 2 1 2
8 11 10 9 8 8 8 8 8 10 10 13 12 12 10 9 8 7 5 6 6 6 6 5 5 5 4 4 3 3 3 3 3 4 4 3 4 3 3 2 2 2 2 2
8 12 11 11 8 8 9 8 8 8 9 10 10 11 7 7 6 6 6 6 6 6 5 5 4 4 3 4 3 3 3 3 3 4 4 4 3 3 2 2 2 2 2 2
9 11 12 14 9 10 12 9 9 8 8 9 12 10 7 8 7 7 6 6 6 6 5 4 4 4 3 3 3 4 3 2 3 4 3 3 3 3 3 3 2 2 3 3
10 11 11 13 12 17 10 7 7 8 8 8 8 7 7 7 6 6 5 6 6 6 4 4 4 4 3 3 3 3 2 3 3 4 4 3 3 3 3 3 3 3 3 3
8 10 13 14 14 11 9 8 8 10 11 7 8 7 6 6 6 6 5 5 6 5 5 4 3 3 3 3 3 3 2 3 3 3 3 4 3 3 4 4 4 4 3 3
8 9 12 13 15 15 11 7 5 6 13 7 7 7 7 7 10 9 5 5 5 5 5 3 3 2 3 3 3 3 3 3 4 3 3 3 3 3 2 3 3 3 3 3
12 12 13 14 14 12 8 6 5 13 13 7 7 7 7 9 7 5 5 5 5 5 3 3 3 3 3 2 3 4 4 3 3 2 2 3 2 3 2 3 4 3 3 2
13 14 14 14 15 16 6 6 10 8 7 6 6 6 6 6 5 5 5 5 4 4 3 2 3 3 3 2 3 3 4 2 2 2 2 3 3 3 3 3 2 1 2 2
13 11 13 12 12 7 7 7 6 5 6 6 6 5 5 5 5 5 5 5 4 3 3 3 3 3 3 3 3 3 4 3 2 2 3 3 2 3 2 3 3 2 2 3
9 7 10 10 8 7 6 6 5 5 5 5 4 5 4 5 4 4 4 5 5 3 3 3 3 3 3 3 2 3 3 3 3 3 3 2 3 3 3 2 2 2 3 4
8 8 9 9 8 7 6 5 5 4 4 4 4 4 4 4 5 4 4 4 4 4 3 3 3 3 3 2 3 2 2 3 3 3 2 3 3 3 3 3 2 3 2 4
7 9 10 11 7 7 7 5 4 4 4 4 4 4 4 4 4 4 4 3 4 5 4 3 3 3 3 2 2 2 2 2 3 3 3 3 3 3 3 4 3 4 5 6